Regional Weather Roundup
Issued by NWS Grand Forks, ND

Current Version | Previous Version | Text Only | Print | Product List | Glossary On
Versions: 1 2 3 4 5 6 7 8 9 10 11 12 13 14 15 16 17 18 19 20 21 22 23 24 25 26 27 28 29 30 31 32 33 34 35 36 37 38 39 40 41 42 43 44 45 46 47 48 49 50
000
ASUS43 KFGF 202231
RWRFGF
PRAIRIE TO PINES  WEATHER ROUNDUP
NATIONAL WEATHER SERVICE EASTERN NORTH DAKOTA/GRAND FORKS ND
400 PM CST FRI JAN 20 2017

 **SATELLITE DATA USED TO AUGMENT SKY COVER AT AUTOMATED STATIONS**
 *****  WEATHER ACROSS EASTERN NORTH DAKOTA  *****

CITY           SKY/WX    TMP DP  RH WIND       PRES   REMARKS
GRAND FORKS    FOG       35  33  92 SE8       29.45S VSB 1
GRAND FRKS AFB FOG       34  34  99 E7        29.44F VSB 1
DEVILS LAKE    CLOUDY    33  33 100 SE7       29.40R FOG
FARGO          CLOUDY    38  35  89 E12       29.44S
WAHPETON ARPT  CLOUDY    34  32  93 E12       29.44S
$$

 ***** WEATHER ACROSS CENTRAL AND WESTERN NORTH DAKOTA  *****

CITY           SKY/WX    TMP DP  RH WIND       PRES   REMARKS
BISMARCK       CLOUDY    31  30  96 CALM      29.34S FOG
MINOT          CLOUDY    27  25  92 S15       29.33F WCI  15
JAMESTOWN      FOG       33  33 100 SE13      29.36S VSB 1/4 WCI  24
MINOT AFB      PTSUNNY   23  21  93 S8        29.34S WCI  14
GARRISON         N/A     25  24  96 S8        29.33S WCI  16
WILLISTON      FAIR      32  26  78 CALM      29.34R
DICKINSON      FAIR      32  27  81 NW15      29.28S WCI  22
HETTINGER      PTSUNNY   33  28  81 N8        29.31R
$$

 *****  OTHER AIRPORT OBSERVATIONS IN OUR AREA  *****

CITY           SKY/WX    TMP DP  RH WIND       PRES   REMARKS
WALHALLA       NOT AVBL
GRAFTON AIRPOR FOG       34  34 100 SE8       29.48R VSB 3/4
VALLEY CITY AR FOG       32  32 100 SE7       29.41S VSB<1/4
CANDO          NOT AVBL
CAVALIER APRT  FOG       34  34 100 SE6       29.47R VSB 1/2
GWINNER        CLOUDY    34  34 100 E13       29.40S VSB<1/4 WCI  25
SHEYENNE NWR     N/A     34  33  98 SE10      29.95S
ROLLA            N/A    N/A N/A N/A MISG        N/A
 ***** THE ABOVE OBSERVATIONS ARE NON NWS ARE NOT QUALITY
       CONTROLLED AND MAY MIS-REPORT RAIN FOR SNOW...
$$

  *****  WEATHER ACROSS NORTHERN MINNESOTA  *****

CITY           SKY/WX    TMP DP  RH WIND       PRES   REMARKS
FLAG ISLAND    LGT RAIN  36  34  93 CALM      29.52R
WARROAD        DRIZZLE   36  32  87 E8        29.51S
ROSEAU         DRIZZLE   37  32  81 SE5       29.50S
HALLOCK        CLOUDY    36  36 100 SE9       29.48R FOG
THF RVR FALLS  CLOUDY    35  34  96 E7        29.49R FOG
BAUDETTE       LGT RAIN  36  35  96 SE8       29.51S FOG
WASKISH        CLOUDY    37  36  93 SE7       29.52R FOG
CROOKSTON      CLOUDY    36  36 100 SE8       29.48S
STEPHEN NDAWN    N/A     34  34 100 SE6         N/A
GREENBUSH NDAW   N/A     36  34  93 SE9         N/A
$$
  *****  WEATHER ACROSS CENTRAL AND WEST MINNESOTA  *****

CITY           SKY/WX    TMP DP  RH WIND       PRES   REMARKS
FOSSTON        CLOUDY    34  34 100 SE6       29.49R
BEMIDJI        CLOUDY    34  34 100 SE7       29.50R
PARK RAPIDS    CLOUDY    35  32  88 SE10      29.48S FOG
ELBOW LAKE     CLOUDY    34  34 100 SE10      29.47R FOG
WADENA         CLOUDY    34  34 100 SE8       29.48S FOG
DETROIT LAKES  CLOUDY    34  34 100 SE10      29.47S FOG
MOORHEAD       CLOUDY    36  34  93 E9        29.45S
FERGUS FALLS   CLOUDY    36  36 100 SE12      29.50R
MORRIS MN      CLOUDY    36  34  93 SE12      29.46R FOG
STAPLES        FOG       34  34 100 SE3       29.50S VSB 1
$$
  *****  WEATHER ELSEWHERE ACROSS MINNESOTA  *****

CITY           SKY/WX    TMP DP  RH WIND       PRES   REMARKS
DULUTH         LGT SNOW  34  34 100 E10       29.57F VSB 1
INTRNTL FALLS  LGT RAIN  37  34  89 SE7       29.55R
ELY            LGT RAIN  36  34  93 SE6       29.59R
CLOQUET        DRZL/FOG  34  34 100 E5        29.56F VSB 1/4
WHEATON        CLOUDY    41  41 100 SE16      29.45S FOG
BRAINERD       CLOUDY    35  34  96 SE5       29.52F FOG
HIBBING        LGT RAIN  33  33 100 SE9       29.56S
ALEXANDRIA     FOG       33  33 100 SE10      29.49R VSB 3/4 WCI  25
SAINT CLOUD    FOG       35  35 100 SE6       29.53S VSB 1/4
MINNEAPOLIS    CLOUDY    36  34  92 SE10      29.56R FOG
$$

  *****  WEATHER ACROSS SOUTH DAKOTA  *****

CITY           SKY/WX    TMP DP  RH WIND       PRES   REMARKS
SIOUX FALLS    FOG       40  40 100 SE16      29.43R VSB 1/2
BROOKINGS      FOG       37  36  93 S12       29.41R VSB 1
WATERTOWN      FOG       35  35 100 SE12      29.38S VSB 1/4
HURON          FAIR      44  36  73 S7        29.34S
SISSETON         N/A     35  35 100 S10       29.42R
ABERDEEN       CLOUDY    34  31  88 SE9       29.36R
MITCHELL       FAIR      49  40  71 S8        29.35S
PIERRE         FAIR      21  17  84 SW7       29.32R WCI  12
MOBRIDGE       CLOUDY    30  27  88 NW5       29.29R FOG
RAPID CITY     CLOUDY    40  31  70 NW18      29.31R
$$

  *****  SOME WEATHER IN NEARBY STATES *****

CITY           SKY/WX    TMP DP  RH WIND       PRES   REMARKS
GLASGOW MT     PTSUNNY   35  29  78 W8        29.35S
GREAT FALLS MT FAIR      42  23  46 SW8       29.34F
CHEYENNE WY    CLOUDY    39  19  44 NW16G23   29.37R
SCOTTSBLUFF NE CLOUDY    39  32  76 NW10      29.38R
OMAHA NE       DRIZZLE   43  39  86 E8        29.45F FOG
DES MOINES IA  FOG       42  40  92 E5        29.51F VSB 1/2
DAVENPORT IA   CLOUDY    44  41  89 SE6       29.59S
CHICAGO IL     CLOUDY    41  39  93 E3        29.63S FOG
EAU CLAIRE WI  CLOUDY    36  35  96 SE10      29.60R
LA CROSSE WI   CLOUDY    40  37  89 E6        29.60R FOG
$$

  *****  SOME NATIONAL WEATHER *****

CITY           SKY/WX    TMP DP  RH WIND       PRES   REMARKS
LA GUARDIA NY  LGT RAIN  45  37  73 VRB3      29.93F
RALEIGH NC     MOCLDY    59  55  87 W6        29.86R
ATLANTA GA     FAIR      71  55  56 SW8       29.83R
NEW ORLEANS LA PTSUNNY   75  67  76 E8        29.79R
OKLAHOMA CITY  FAIR      68  32  26 SW29G37   29.48S
ALBUQUERQUE NM CLOUDY    41  28  60 NW9       29.65F
SALT LAKE CITY PTSUNNY   42  28  57 S16       29.42F
LOS ANGELES CA CLOUDY    58  53  84 W30G40    29.45S
BOISE ID       FAIR      41  27  57 SE15      29.26S
SEATTLE WA     CLOUDY    51  31  46 E14       29.09F
$$

*** WEATHER ACROSS MANITOBA...SASKATCHEWAN AND ONTARIO ***
                ***ONTARIO***

CITY           SKY/WX    TMP DP  RH WIND       PRES   REMARKS
GERALDTON      FOG       34  34 100 SW6       29.65R VSB 1/8
THUNDER BAY    FOG       32  32 100 CALM      29.67R VSB 1/8
SIOUX LOOKOUT  FOG       36  36 100 SE5       29.58S VSB 1/8
TORONTO        DRIZZLE   37  36  93 E7        29.72S
BIG TROUT LK   FLURRIES  25  25 100 SE5       29.65  WCI  19
PICKLE LAKE    FOG       34  34 100 CALM      29.59S VSB 1/8
DRYDEN         CLOUDY    37  37 100 SE7       29.56R
KENORA         CLOUDY    37  37 100 SE6       29.52S FOG
$$
                *** MANITOBA***

CITY           SKY/WX    TMP DP  RH WIND       PRES   REMARKS
BRANDON        CLOUDY    25  19  80 N6        29.40S WCI  18
DAUPHIN        CLEAR     27  21  80 SE5       29.38R WCI  21
ISLAND LAKE    FRZ DRZL  30  28  93 VRB2      29.57  FOG
PILOT MOUND      N/A     34  32  93 SE12        N/A
THE PAS        CLOUDY    30  23  74 E7        29.39S WCI  23
THOMPSON       LGT SNOW  28  28 100 E7        29.53R FOG     WCI  21
WINNIPEG       DRZL/FOG  36  34  93 SE9       29.48S VSB 1
LYNN LAKE      CLOUDY    28  28 100 SE10      29.45R FOG     WCI  19
CHURCHILL      FLURRIES  16  14  93 E16G22    29.78R WCI   0
GILLAM         LGT SNOW  27  27 100 SE5       29.63R WCI  21
$$
                ***SASKATCHEWAN***

CITY           SKY/WX    TMP DP  RH WIND       PRES   REMARKS
ESTEVAN        FOG       23  23 100 CALM      29.32F VSB 1/4
KINDERSLEY     PTSUNNY   36  30  80 NW3       29.31R
LLOYDMINSTER   PTSUNNY   34  30  86 NW5       29.34R
PRINCE ALBERT  MOCLDY    34  28  80 N7        29.31R
REGINA         PTSUNNY   30  27  86 SE5       29.31S
YORKTON        MOCLDY    28  25  86 SE6       29.31R WCI  22
N. BATTLEFORD  MOCLDY    30  27  86 NW12      29.34S WCI  21
LA RONGE       CLOUDY    28  28 100 NE5       29.36R WCI  23
SASKATOON      CLOUDY    34  30  86 NW6       29.32S
SWIFT CURRENT  CLOUDY    39  27  60 W12       29.29S
$$
NOTE: THESE ARE AUTOMATED STATIONS WITH LIMITED QUALITY CONTROL
      "FAIR" INDICATES FEW OR NO CLOUDS BELOW 12,000 FEET WITH NO
      SIGNIFICANT WEATHER AND/OR OBSTRUCTIONS TO VISIBILITY.
      SKY/WX - SKY CONDITION AND SIGNIFICANT WEATHER.
      TMP - AIR TEMPERATURE.    DP   - DEWPOINT TEMPERATURE.
      RH  - RELATIVE HUMIDITY.  PRES - PRESSURE.
      HX  - HEAT INDEX.         WCI  - WIND CHILL INDEX.
$




USA.gov is the U.S. government's official web portal to all federal, state and local government web resources and services.